COSMOS 713

Satellite information

Favourite Embed

Satellite Type and Status

PAYLOADIN ORBIT

Key statistics

Satellite COSMOS 713 at a glance.

Uptime

18496

Days in orbit

Revolutions

≈ 12.6

Per day

Orbit

LEO

Low Earth Orbit

Inclination

74.0

Latest

Satellite identification and parameters

Extended collection of information and parameters for COSMOS 713.

Object identification

Identified? True

Debris? False

Object name: COSMOS 713

International designator: 1975-016C

Object number (NORAD): 7680

Object ID (CCSDS): 7680

Country: COMMONWEALTH OF INDEPENDENT STATES (CIS)

Current information (Y/N): Y

RCS size: MEDIUM

Orbital parameters

Period: 114.68 minutes

Inclination: 74.006 deg

SMA: 7819.004 km

Apoapsis: 1486.223 km

Periapsis: 1395.515 km

RAAN: 343.1927 deg

Eccentricy: 0.0058005

Argument of periapsis: 152.5253 deg

Mean anomaly: 273.6414 deg

Mean motion: 12.55670315 rev/day

Mean motion (dot): 0.00000007 rev/day2

B* drag term: 0.00013781816 1/REarth

Two-line elements (TLE)

Creation date: Oct. 19, 2025, 2:20 a.m.

Reference frame: TEME

Reference center: EARTH

Epoch: Oct. 18, 2025, 10:58 p.m. UTC

TLE line 0: 0 COSMOS 713

TLE line 1: 1 07680U 75016C 25291.95744126 .00000007 00000-0 13782-3 0 9998

TLE line 2: 2 07680 74.0060 343.1927 0058005 152.5253 273.6414 12.55670315321121

Live tracking on map

Real-time ground track for satellite COSMOS 713.

In-orbit conjunctions

There are no conjunctions computed for COSMOS 713, at the moment. Check back to stay up to date, as we update our databases every day.

Go to all conjunctions

Associated space launch

Military communications satellites

COSMOS 713 was lifted into orbit during the mission ‘Kosmos-3M | Strela-1M 81-88’, on board a Kosmos-3M space rocket.

The launch took place on Feb. 28, 1975, 2:01 p.m. from 132/2.

For more information about the launch, click the button.

Launch to space Kosmos-3M | Strela-1M 81-88
Kosmos-3M | Strela-1M 81-88

Agency: N/A

Status: Launch Successful

Launch date: Feb. 28, 1975, 2:01 p.m. UTC

Rocket: Kosmos-3M

Launch pad: 132/2

Location: Plesetsk Cosmodrome, Russian Federation

...

Latest news about this satellite

There are no fresh news available about this satellite. Check back as we update our databases every day.


Newsletter sign-up

Weekly statistics, charts and insights to help you stay on top of the space industry.